Location: Colorado Springs
(38.8340°N, 104.8210°W)
Time: 21:34:47
(UTC-07:00)

Vanguard 3 - Pass Details

Date: 27 October 2017
Orbit: 509 x 3263 km, 33.4° (Epoch: 18 November)

Event Time Altitude Azimuth Distance (km) Brightness Sun altitude
Rises 06:04:46 0° 269° (W) 6,782 - -15.5°
Reaches altitude 10° 06:09:51 10° 267° (W) 5,440 - -14.5°
Exits shadow 06:12:12 16° 265° (W) 4,798 10.4 -14.0°
Maximum altitude 06:24:29 64° 191° (S) 1,930 9.0 -11.7°
Drops below altitude 10° 06:32:35 10° 111° (ESE) 3,162 11.6 -10.1°
Sets 06:34:48 0° 108° (ESE) 3,860 12.7 -9.7°
